Regional Weather Roundup
Issued by NWS Upton, NY

Current Version | Previous Version | Text Only | Print | Product List | Glossary On
Versions: 1 2 3 4 5 6 7 8 9 10 11 12 13 14 15 16 17 18 19 20 21 22 23 24 25 26 27 28 29 30 31 32 33 34 35 36 37 38 39 40 41 42 43 44 45 46 47 48 49 50
000
ASUS41 KOKX 032308
RWROKX

REGIONAL WEATHER ROUNDUP
NATIONAL WEATHER SERVICE NEW YORK NY
700 PM EDT FRI JUL 03 2015

NOTE: "FAIR" INDICATES FEW OR NO CLOUDS BELOW 12,000 FEET WITH NO
SIGNIFICANT WEATHER AND/OR OBSTRUCTIONS TO VISIBILITY.

NYZ071-072-176-178-NJZ106-104-040000-
NEW YORK CITY METRO AREA


CITY           SKY/WX    TMP DP  RH WIND       PRES   REMARKS
CENTRAL PARK   PTSUNNY   78  56  46 CALM      29.98S
LAGUARDIA APRT PTSUNNY   77  55  46 SE10      29.94F
KENNEDY INTL   PTSUNNY   75  59  57 S9        29.97S
NEWARK/LIBERTY CLOUDY    78  61  55 S8        29.94F
BRNX BOT. GARD   N/A     75  55  50 S3        29.95F
TETERBORO      PTSUNNY   78  57  48 S7        29.93F
$$

NYZ177-179-078>081-040000-
LONG ISLAND NEW YORK

CITY           SKY/WX    TMP DP  RH WIND       PRES   REMARKS
FARMINGDALE    PTSUNNY   74  54  49 S7        29.98R
ISLIP          PTSUNNY   75  52  44 SE7       29.96S
SHIRLEY        PTSUNNY   73  58  59 VRB6      29.99R
WESTHAMPTON    PTSUNNY   71  59  65 S3        30.00R
MONTAUK POINT    N/A     71  59  65 S3        30.00R
$$

NYZ052-065-067-040000-
HUDSON VALLEY

CITY           SKY/WX    TMP DP  RH WIND       PRES   REMARKS
WHITE PLAINS   PTSUNNY   73  50  44 SE7       29.97R
NEWBURGH       PTSUNNY   75  54  46 VRB5      29.97F
MONTGOMERY     MOSUNNY   74  56  53 SE7       29.95S
POUGHKEEPSIE   MOSUNNY   76  52  43 SE3       29.95S
ALBANY         PTSUNNY   76  48  37 E5        29.96S
$$

NJZ001-105-106-008-010-013-015-019>022-104-040000-
NEW JERSEY

CITY           SKY/WX    TMP DP  RH WIND       PRES   REMARKS
NEWARK/LIBERTY CLOUDY    78  61  55 S8        29.94F
TETERBORO      PTSUNNY   78  57  48 S7        29.93F
CALDWELL       PTSUNNY   78  56  46 SW3       29.95S
MORRISTOWN     PTSUNNY   79  59  50 SW7       29.95F
SOMERVILLE     CLOUDY    76  62  62 CALM      29.93F
SUSSEX         PTSUNNY   74  63  68 CALM      29.95F
ANDOVER          N/A     73  62  68 CALM      29.96F
TRENTON        CLOUDY    78  60  53 S7        29.95R
MILLVILLE      CLOUDY    74  65  73 S5        29.97S
ATLANTIC CITY  CLOUDY    73  62  68 S7        29.98R
WRIGHTSTOWN    PTSUNNY   75  62  64 S8        29.94R
TOMS RIVER     PTSUNNY   73  61  64 S5        29.98R
BELMAR         PTSUNNY   72  59  64 S7        29.98R
$$

PAZ047>061-062-071-040000-
EASTERN PENNSYLVANIA

CITY           SKY/WX    TMP DP  RH WIND       PRES   REMARKS
PHILADELPHIA   CLOUDY    80  61  52 S8        29.95S
ALLENTOWN      CLOUDY    78  60  53 S6        29.95S
SCRANTON       CLOUDY    77  58  51 VRB6      29.95S
$$

CTZ002-004>006-009-010-012-RIZ004-006-007-MAZ004-011-015-040000-
SOUTHERN NEW ENGLAND
 IN CT

CITY           SKY/WX    TMP DP  RH WIND       PRES   REMARKS
BRADLEY INTL   PTSUNNY   78  49  35 W8        29.94R
HARTFORD       MOSUNNY   77  53  43 SW8       29.95R
DANBURY        MOSUNNY   73  56  54 SW3       29.99R
WTRBRY/OXFORD  SUNNY     72  55  56 S6        30.01R
BRIDGEPORT     PTSUNNY   74  55  51 SE7       29.97R
MERIDEN        MOSUNNY   74  54  49 S6        29.97R
NEW HAVEN      PTSUNNY   74  55  51 S5        29.97S
CHESTER        FAIR      73  55  53 S5        29.99R
GROTON         PTSUNNY   69  59  70 S5        29.98R
WILLIMANTIC    MOSUNNY   76  54  46 CALM      29.97R

 IN RI

CITY           SKY/WX    TMP DP  RH WIND       PRES   REMARKS
PROVIDENCE     PTSUNNY   73  52  47 S14       29.97R
BLOCK ISLAND   PTSUNNY   70  57  64 SW7       29.99R
WESTERLY       MOSUNNY   72  56  57 SW8       29.99R

 IN MA

CITY           SKY/WX    TMP DP  RH WIND       PRES   REMARKS
BOSTON         MOSUNNY   72  56  57 E8        29.95R
WORCESTER      SUNNY     74  49  41 W3        29.99S
WESTFIELD      SUNNY     77  51  40 W8        29.95S
PROVINCETOWN   SUNNY     73  16  11 S9        29.97R
NANTUCKET      MOSUNNY   65  54  67 SE6       29.98R
$$

ANZ330-335-338-340-345-350-353-355-040000-
COASTAL MARINE OBSERVATIONS


STATION/POSITION TIME  SKY/WX   TEMP    WIND        PRES    VSBY  WAVE
                                AIR SEA DIR/SP/G                  HT/PER
                 (UTC)          (F)     (DEG/KT/KT) (MB)    (MI)  (FT/S)
NY HARB ENTRANCE 2250            71 70  190/ 10/ 12 1014.2          3/ 8
4S FIRE IS       2203               71                N/A           3/ 8
20S FIRE ISLAND  2250            71 70  170/  6/  8 1014.6          4/ 8
GREAT SOUTH BAY  2200            73 76  220/  6/  8   N/A
23SW MTP         2250            69 70  180/  4/  6 1015.0          3/ 7
HUDSON CANYON    NOT AVBL
KINGS POINT      2200            75 68  190/  8/  9 1013.9
CENTRAL LI SOUND NOT AVBL
EASTERN LI SOUND 2200            71 65  180/  8/ 10   N/A
ROBBINS REEF     2200            75     170/ 12/ 13 1013.2
$$


>>>>>>>>>>>>>>>>>>>>>>>>>>>> KEY <<<<<<<<<<<<<<<<<<<<<<<<<<<
>                                                          <
>     SKY/WX - SKY CONDITION/PRESENT WEATHER               <
>     TMP    - TEMPERATURE IN FAHRENHEIT                   <
>     DP     - DEWPOINT IN FAHRENHEIT                      <
>     RH     - RELATIVE HUMIDITY IN PERCENT                <
>     WIND   - DIRECTION AND SPEED IN MPH                  <
>     PRES   - MEAN SEA LEVEL PRESSURE IN INCHES OF HG     <
>     WCI    - WIND CHILL INDEX                            <
>     VSB    - VISIBILITY IN MILES                         <
>     HX     - HEAT INDEX                                  <
>     TC     - TEMPERATURE IN CELSIUS                      <
>     VRB    - VARIABLE WIND DIRECTION                     <
>                                                          <
>>>>>>>>>>>>>>>>>>>>>>>>>>>> KEY <<<<<<<<<<<<<<<<<<<<<<<<<<<




USA.gov is the U.S. government's official web portal to all federal, state and local government web resources and services.